, SD

(GMT )
Rapid City

Weather History for KRAP - July, 2013

Change the Weather History Date:

Sunday, July 7, 2013

  Actual Average Record
Temperature  
Mean Temperature 74 °F 71 °F  
Max Temperature 87 °F 86 °F 109 °F (1989)
Min Temperature 61 °F 57 °F 44 °F (1993)
Degree Days  
Heating Degree Days 0 1  
Month to date heating degree days 0 7  
Since 1 June heating degree days 80 106  
Since 1 July heating degree days 0 7  
Cooling Degree Days 9 7  
Month to date cooling degree days 57 45  
Year to date cooling degree days 135 144  
Since 1 June cooling degree days 127 129  
Growing Degree Days 26 (Base 50)    
Moisture  
Dew Point 59 °F    
Average Humidity 62    
Maximum Humidity 87    
Minimum Humidity 37    
Precipitation  
Precipitation 0.04 in 0.06 in 0.76 in (1984)
Month to date precipitation 0.40 0.37  
Year to date precipitation 10.18 9.59  
Snow  
Snow 0.00 in 0.00 in 0.00 in ()
Month to date snowfall 0.0 0.0  
Since 1 June snowfall 0.0 0.0  
Since 1 July snowfall 0.0 0.0  
Snow Depth 0.00 in    
Sea Level Pressure  
Sea Level Pressure 29.92 in    
Wind  
Wind Speed 8 mph (ENE)    
Max Wind Speed 23 mph    
Max Gust Speed 29 mph    
Visibility 10 miles    
Events Rain , Thunderstorm    
T = Trace of Precipitation, MM = Missing Value Source: NWS Daily Summary

Daily Weather History Graph

Daily Weather History Graph

Search for Another Location

Airport or City:

Trip Planner

Search our weather history database for the weather conditions in past years. The results will help you decide how hot, cold, wet, or windy it might be!

Date:

Astronomy

Jul. 07, 2013 Rise Set
Actual Time 5:17 AM MDT 8:37 PM MDT
Civil Twilight 4:41 AM MDT 9:12 PM MDT
Nautical Twilight 3:54 AM MDT 9:59 PM MDT
Astronomical Twilight 2:56 AM MDT 10:56 PM MDT
Moon 4:57 AM MDT (7/7) 7:59 PM MDT (7/7)
Length of Visible Light 16h 31m
Length of Day
15h 20m
Waning Crescent, 0% of the Moon is Illuminated
Jul 7
Waning Crescent
Jul 8
New
Jul 15
First Quarter
Jul 22
Full
Jul 29
Last Quarter

Hourly Weather History & Observations

Time (MDT) Temp. Heat Index Dew Point Humidity Pressure Visibility Wind Dir Wind Speed Gust Speed Precip Events Conditions
12:52 AM 66.0 °F - 57.0 °F 73% 29.88 in 10.0 mi Calm Calm - N/A   Partly Cloudy
1:52 AM 64.0 °F - 55.9 °F 75% 29.88 in 10.0 mi Calm Calm - N/A   Clear
2:52 AM 64.9 °F - 55.0 °F 70% 29.86 in 10.0 mi Calm Calm - N/A   Clear
3:52 AM 62.1 °F - 55.9 °F 80% 29.86 in 10.0 mi NW 4.6 mph - N/A   Clear
4:52 AM 64.9 °F - 55.9 °F 73% 29.87 in 10.0 mi WNW 5.8 mph - N/A   Clear
5:52 AM 68.0 °F - 59.0 °F 73% 29.87 in 10.0 mi NNW 12.7 mph - N/A   Clear
6:52 AM 64.9 °F - 59.0 °F 81% 29.94 in 10.0 mi WSW 6.9 mph - 0.00 in Rain Light Rain
7:52 AM 64.9 °F - 61.0 °F 87% 29.91 in 10.0 mi Calm Calm - 0.02 in Rain Light Rain
8:52 AM 70.0 °F - 60.1 °F 71% 29.91 in 10.0 mi Calm Calm - N/A   Scattered Clouds
9:52 AM 73.9 °F - 60.1 °F 62% 29.91 in 10.0 mi North 5.8 mph - N/A   Partly Cloudy
10:52 AM 77.0 °F - 62.1 °F 60% 29.93 in 10.0 mi NNE 9.2 mph - N/A   Mostly Cloudy
11:52 AM 80.1 °F 80.6 °F 57.9 °F 47% 29.93 in 10.0 mi Calm Calm - N/A   Mostly Cloudy
12:52 PM 84.0 °F 83.8 °F 59.0 °F 43% 29.92 in 10.0 mi NE 6.9 mph - N/A   Clear
1:52 PM 84.9 °F 84.4 °F 59.0 °F 41% 29.91 in 10.0 mi East 15.0 mph - N/A   Scattered Clouds
2:52 PM 86.0 °F 85.0 °F 57.9 °F 38% 29.90 in 10.0 mi East 12.7 mph 18.4 mph N/A   Clear
3:52 PM 81.0 °F 81.3 °F 59.0 °F 47% 29.91 in 10.0 mi East 17.3 mph 25.3 mph N/A   Mostly Cloudy
4:52 PM 80.1 °F 80.9 °F 60.1 °F 50% 29.91 in 10.0 mi ESE 18.4 mph - N/A   Mostly Cloudy
5:52 PM 75.9 °F - 59.0 °F 56% 29.90 in 10.0 mi ESE 11.5 mph - N/A Thunderstorm Scattered Clouds
6:08 PM 75.2 °F - 60.8 °F 61% 29.97 in 10.0 mi ESE 11.5 mph - 0.00 in Rain Light Rain
6:52 PM 75.9 °F - 61.0 °F 60% 29.91 in 10.0 mi East 12.7 mph - 0.01 in   Clear
7:52 PM 72.0 °F - 61.0 °F 68% 29.94 in 10.0 mi ENE 6.9 mph - N/A   Clear
8:52 PM 69.1 °F - 62.1 °F 78% 29.94 in 10.0 mi SE 6.9 mph - N/A   Clear
9:52 PM 64.9 °F - 61.0 °F 87% 29.97 in 10.0 mi ESE 6.9 mph - N/A   Clear
10:52 PM 64.0 °F - 60.1 °F 87% 29.99 in 10.0 mi NW 10.4 mph - N/A   Clear
11:52 PM 69.1 °F - 63.0 °F 81% 30.02 in 10.0 mi NW 6.9 mph - N/A   Overcast